#timestamp,LO_Frequency,Hit 
1502103615.1,286047007.5,N
1502103635.9,286047005.1,N
1502103655.7,286047005.5,N
1502103675.5,286047005.7,N
1502103695.4,286047000.8,N
1502103715.2,286047002.4,N
1502103735.0,286047000.2,N
1502103735.9,286047000.2,N
1502103755.7,286047000.5,N
1502103775.6,286047000.4,N
1502103795.4,286047002.7,N
1502103815.2,286047002.3,N
1502103835.1,286047002.4,N
1502103836.0,286047002.4,N
1502103855.8,286047002.2,N
1502103875.6,286047002.9,N
1502103895.5,286047003.5,N
1502103915.3,286047005.1,N
1502103935.1,286047004.6,N
1502103955.9,286047006.2,N
1502103975.7,286047008.9,P
1502103995.5,286047005.1,N
1502104015.4,286047004.8,N
1502104035.2,286047005.1,N
1502104055.0,286047002.9,N
1502104055.9,286047002.9,N
1502104075.8,286047005.9,P
1502104095.6,286047000.9,N
1502104115.4,286046998.8,N
1502104135.3,286046995.5,N
1502104155.1,286046994.7,N
1502104175.8,286046994.5,N
1502104195.7,286046994.4,N
1502104215.5,286046994.7,N
1502104235.3,286046996.1,N
1502104255.2,286046998.1,N
1502104275.9,286047000.8,N
1502104295.7,286047001.0,N
1502104315.6,286047000.9,N
1502104335.4,286047002.7,N
1502104355.2,286047000.6,N
1502104375.1,286047000.5,N
1502104376.0,286047000.5,N
1502104395.8,286047000.5,N
1502104415.6,286047000.3,N
1502104435.5,286047000.5,N
1502104455.3,286047000.6,N
1502104475.1,286046998.8,N
1502104495.9,286046996.5,N
1502104515.7,286047002.6,N
1502104535.5,286046999.6,N
1502104555.4,286046997.9,N
1502104575.2,286046996.9,N
1502104595.0,286046998.6,N
1502104595.9,286046998.6,N
1502104615.9,286046998.2,N
1502104635.7,286046997.2,N
1502104655.5,286046993.3,N
1502104675.3,286046993.6,N
1502104695.2,286046992.3,N
1502104715.0,286046990.6,P
1502104715.9,286046990.6,N
1502104735.8,286046990.3,N
1502104755.6,286046986.9,P
1502104775.4,286046996.1,N
1502104795.3,286046995.9,N
1502104815.1,286046995.9,N
1502104816.0,286046995.9,N
1502104835.8,286046993.5,N
1502104855.7,286046990.6,P
1502104875.5,286046996.5,N
1502104895.3,286047000.4,N
1502104915.2,286047000.7,N
1502104935.0,286047002.2,N
1502104935.9,286047002.2,N
1502104955.7,286047004.1,N
1502104975.6,286047005.9,N
1502104995.4,286047007.6,N
1502105015.2,286047006.7,N
1502105035.1,286047010.8,N
1502105036.0,286047010.8,N
1502105055.8,286047008.1,N
1502105075.6,286047008.2,N
1502105095.5,286047006.1,N
1502105115.3,286047007.5,N
1502105135.1,286047005.2,N
1502105155.9,286047003.6,N
1502105175.7,286047005.6,N
1502105195.5,286047005.7,N
1502105215.4,286047006.0,N
1502105235.2,286047004.6,N
1502105255.0,286047001.2,N
1502105255.9,286047001.2,N
1502105275.8,286046997.0,N
1502105295.6,286046999.5,N
1502105315.4,286047000.2,N
1502105335.2,286046999.9,N
1502105355.1,286046999.8,N
1502105356.0,286046999.8,N
1502105375.8,286047002.7,N
1502105395.6,286046999.7,N
1502105415.5,286047005.1,N
1502105435.3,286047005.1,N
1502105455.1,286047007.9,N
1502105475.9,286047011.5,P
1502105495.7,286047008.3,N
1502105515.5,286047007.3,N
1502105535.4,286047006.7,N
1502105555.2,286047005.5,N
1502105575.0,286047003.8,N
1502105576.0,286047003.8,N
1502105595.8,286047001.7,N
1502105615.6,286047000.6,N
1502105635.4,286046998.5,N
1502105655.3,286046998.8,N
1502105675.1,286046999.1,N
1502105695.8,286046998.7,N
1502105715.7,286046996.9,N
1502105735.5,286046996.9,N
1502105755.3,286046999.0,N
1502105775.2,286046996.7,N
1502105795.9,286046995.5,N
1502105815.7,286046993.8,N
1502105835.6,286046994.4,N
1502105855.4,286046992.2,N
1502105875.2,286046994.1,N
1502105895.1,286046992.7,N
1502105896.0,286046992.7,N
1502105915.8,286046990.2,N
1502105935.6,286046990.5,N
1502105955.5,286046992.5,N
1502105975.3,286046994.9,N
1502105995.1,286046998.0,N
1502106015.9,286046994.9,N
1502106035.7,286046997.1,N
1502106055.5,286047002.7,N
1502106075.4,286047000.7,N
1502106095.2,286047000.7,N
1502106115.0,286046997.6,N
1502106115.9,286046997.6,N
1502106135.8,286046995.7,N
1502106155.6,286046992.6,N
1502106175.4,286046993.2,N
1502106195.2,286046994.4,N
1502106215.1,286046993.4,N
1502106216.0,286046993.4,N
1502106235.8,286046996.4,N
1502106255.6,286046993.8,N
1502106275.5,286046995.7,N
1502106295.3,286046996.6,N
1502106315.1,286046998.8,N
1502106335.9,286046997.7,N
1502106355.7,286046995.7,N
1502106375.5,286046993.8,N
1502106395.4,286046994.7,N
1502106415.2,286046992.2,N
1502106435.0,286046991.0,P
1502106435.9,286046991.0,P
1502106455.8,286046998.0,N
1502106475.6,286046997.5,N
1502106495.4,286046994.2,N
1502106515.3,286046993.9,N
1502106535.1,286046993.0,N
1502106555.8,286046994.4,N
1502106575.7,286046991.8,P
1502106595.5,286046999.0,N
1502106615.4,286046996.7,N
1502106635.2,286046997.8,N
1502106655.0,286046999.1,N
1502106655.9,286046999.1,N
1502106675.8,286046995.0,N
1502106695.6,286046999.5,N
1502106715.4,286046997.4,N
1502106735.3,286046995.7,N
1502106755.1,286046996.1,N
1502106756.0,286046996.1,N
1502106775.8,286046994.2,N
1502106795.7,286046996.4,N
1502106815.5,286046996.7,N
1502106835.3,286046999.3,N
1502106855.1,286046998.8,N
1502106875.9,286046997.1,N
1502106895.7,286046996.9,N
1502106915.5,286046999.0,N
1502106935.4,286047001.2,N
1502106955.2,286046998.1,N
1502106975.0,286046998.6,N
1502106975.9,286046998.6,N
1502106995.8,286046997.4,N
1502107015.6,286046996.6,N
1502107035.4,286046999.5,N
1502107055.3,286046996.6,N
1502107075.1,286046997.2,N
1502107095.8,286046995.0,N
1502107115.7,286046993.6,P
1502107135.5,286046998.6,N
1502107155.3,286047001.0,N
1502107175.2,286046998.5,N
1502107195.0,286046996.5,N
1502107195.9,286046996.5,N
